Tracking 19176 objects as of 26-May-2018
HD Live streaming from Space Station
objects crossing your sky now

WESTFORD NEEDLES

Track WESTFORD NEEDLES now!
10-day predictions
WESTFORD NEEDLES is classified as:


NORAD ID: 629
Int'l Code: 1963-014G
Perigee: 3,571.5 km
Apogee: 3,726.9 km
Inclination: 87.3 °
Period: 166.4 minutes
Semi major axis: 10020 km
RCS: 1.0881 m2 (large)
Launch date: May 9, 1963
Source: United States (US)
Launch site: AIR FORCE WESTERN TEST RANGE (AFWTR)
aabbcc
Your satellite tracking list
Your tracking list is empty




NASA's NSSDC Master Catalog

Two Line Element Set (TLE):
1 00629U 63014G   18145.36446434  .00000020  00000-0  79365-2 0  9998
2 00629  87.3205 112.9797 0077549 156.8327 203.6052  8.65537269739372
Source of the keplerian elements: AFSPC